星链-5427 (STARLINK-5427 )

导读

STARLINK-5427是美国SpaceX公司星链(Starlink)项目的卫星,于2022年12月28日发射升空。作为星链星座的组成部分,它旨在为全球提供高速低延迟卫星互联网服务,尤其覆盖偏远地区与网络基础设施匮乏区域,是SpaceX打造全球卫星互联网组网进程中部署的一颗低轨卫星。

基本信息
目录编号:
54853
目录名称:
STARLINK-5427
国际标识:
2022-177AK
轨道中心:
EARTH
卫星名称:
星链-5427
卫星全名:
星链-5427 (STARLINK-5427 )
卫星状态:
在轨 (已飞行1346 天)
发射日期:
2022-12-28 UTC
国别 :
美国 (US)
星等 :
--
轨道信息
数据来源 国际轨道数据 AOE轨道数据
星历时间 2026-09-04T12:47:06+0800
7小时前
查看轨道信息
2026-09-03T23:00:00+0800
21小时前
查看轨道信息
半长轴 6861.195km 6861.166km
偏心率 0.0001293 0.0001219
轨道倾角 43.001° 42.999°
近地点辐角 263.971° 262.297°
升交点赤经 193.262° 196.508°
平近点角 96.099° 175.428°
近地点 482.17km 482.192km
远地点 483.946km 483.866km
周期 94.267分钟 94.266分钟
每日圈数 15.275772 15.27587
详细信息
固有亮度:
5
最大亮度:
2.5
卫星平台:
Starlink v1.5
覆盖范围:
全球
运营商:
太空探索技术公司
运营商所在国:
美国
制造商(研发单位):
太空探索技术公司
制造商所在国:
美国
使用方式:
暂无
卫星简介
星链(Starlink)计划是由太空探索技术公司(SpaceX)提出的一个巨型低轨卫星互联网星座项目,计划在2019年至2024年间在太空搭建由约1.2万颗卫星组成的“星链”网络,其中1584颗将部署在地球上空550千米处的近地轨道,并从2020年开始工作。该卫星仍在工作。
2D轨道图
3D轨道图
轨道高度分析图
轨道倾角分析图
轨道综合分析图
查看轨道综合分析图
交会数据列表
事件ID 空间交会对象 最接近时刻(TCA) 交会距离 交会风险概率(CRP) 交会风险指数(CRI) 操作
CDM_260906-071605-485306-801321
2026-09-06T
07:16:14+0000
0.308 km
远距离
3.304011E-4 高风险 0.85
CDM_260906-082105-485306-252421
2026-09-06T
08:21:14+0000
1.467 km
极远距离
4.700393E-6 低风险 0.48
CDM_260906-082105-485306-252422
2026-09-06T
08:21:14+0000
2.066 km
极远距离
1.781498E-6 低风险 0.4
CDM_260906-054205-485306-801321
2026-09-06T
05:42:05+0000
2.069 km
极远距离
1.531435E-6 低风险 0.39
CDM_260828-033605-485305-721721
2026-08-28T
03:36:59+0000
2.493 km
极远距离
1.413852E-6 低风险 0.38
CDM_260906-085005-485306-801321
2026-09-06T
08:50:23+0000
2.664 km
极远距离
9.529619E-7 极低风险 0.35